When you browse on this site, cookies collect data to enhance your experience and personalize the content and advertising you see.
Visit our Privacy Policy to learn more. By continuing to use the site, you agree to this use of cookies and data.
  • en Suisse
  • Liste des pays
  • À 7 jours
  • Température de l'eau
  • Carte météo
  • Widgets météo
  • user-avatar
    Se connecter

    Météo par heure à Neuquén

    Ce jour, 18 Octobre, Vendredi

    Heure Température Précipitation Vent Pression Humidité
    00:00 +13°C° 0 mm 5 m/s 736 mmHg 33%
    01:00 +13°C° 0 mm 5 m/s 736 mmHg 37%
    02:00 +12°C° 0 mm 4 m/s 736 mmHg 41%
    03:00 +11°C° 0 mm 4 m/s 737 mmHg 44%
    04:00 +11°C° 0 mm 4 m/s 737 mmHg 48%
    05:00 +12°C° 0 mm 3 m/s 737 mmHg 44%
    06:00 +14°C° 0 mm 3 m/s 738 mmHg 40%
    07:00 +17°C° 0 mm 3 m/s 738 mmHg 37%
    08:00 +18°C° 0 mm 2 m/s 739 mmHg 32%
    09:00 +21°C° 0 mm 1 m/s 739 mmHg 27%
    10:00 +22°C° 0 mm 1 m/s 739 mmHg 22%
    11:00 +23°C° 0 mm 1 m/s 739 mmHg 21%
    12:00 +24°C° 0 mm 2 m/s 738 mmHg 19%
    13:00 +25°C° 0 mm 2 m/s 738 mmHg 17%
    14:00 +25°C° 0 mm 2 m/s 738 mmHg 16%
    15:00 +25°C° 0 mm 1 m/s 737 mmHg 15%
    16:00 +25°C° 0 mm 1 m/s 737 mmHg 15%
    17:00 +24°C° 0 mm 1 m/s 737 mmHg 17%
    18:00 +22°C° 0 mm 1 m/s 737 mmHg 19%
    19:00 +20°C° 0 mm 1 m/s 737 mmHg 22%
    20:00 +19°C° 0 mm 2 m/s 737 mmHg 22%
    21:00 +19°C° 0 mm 2 m/s 737 mmHg 22%
    22:00 +19°C° 0 mm 3 m/s 738 mmHg 21%
    23:00 +18°C° 0 mm 3 m/s 737 mmHg 22%

    Demain, 19 Octobre, Samedi

    Heure Température Précipitation Vent Pression Humidité
    00:00 +18°C° 0 mm 3 m/s 737 mmHg 22%
    01:00 +17°C° 0 mm 3 m/s 737 mmHg 22%
    02:00 +17°C° 0 mm 3 m/s 736 mmHg 23%
    03:00 +15°C° 0 mm 4 m/s 736 mmHg 24%
    04:00 +15°C° 0 mm 4 m/s 736 mmHg 25%
    05:00 +17°C° 0 mm 5 m/s 736 mmHg 24%
    06:00 +20°C° 0 mm 7 m/s 737 mmHg 22%
    07:00 +22°C° 0 mm 8 m/s 737 mmHg 21%
    08:00 +23°C° 0 mm 9 m/s 736 mmHg 21%
    09:00 +26°C° 0 mm 10 m/s 736 mmHg 21%
    10:00 +28°C° 0 mm 11 m/s 735 mmHg 21%
    11:00 +29°C° 0 mm 11 m/s 735 mmHg 21%
    12:00 +31°C° 0 mm 10 m/s 734 mmHg 21%
    13:00 +31°C° 0 mm 10 m/s 733 mmHg 21%
    14:00 +31°C° 0 mm 10 m/s 732 mmHg 22%
    15:00 +31°C° 0 mm 11 m/s 732 mmHg 23%
    16:00 +31°C° 0 mm 11 m/s 731 mmHg 24%
    17:00 +29°C° 0.1 mm 10 m/s 731 mmHg 26%
    18:00 +27°C° 0.1 mm 9 m/s 731 mmHg 29%
    19:00 +26°C° 0.1 mm 8 m/s 731 mmHg 32%
    20:00 +24°C° 0.4 mm 8 m/s 731 mmHg 34%
    21:00 +24°C° 0.4 mm 8 m/s 731 mmHg 37%
    22:00 +23°C° 0.4 mm 7 m/s 731 mmHg 40%
    23:00 +23°C° 0.1 mm 7 m/s 731 mmHg 41%

    Après-demain, 20 Octobre, Dimanche

    Heure Température Précipitation Vent Pression Humidité
    00:00 +22°C° 0.1 mm 7 m/s 731 mmHg 42%
    01:00 +22°C° 0.1 mm 6 m/s 731 mmHg 44%
    02:00 +20°C° 0.3 mm 5 m/s 731 mmHg 50%
    03:00 +19°C° 0.3 mm 4 m/s 732 mmHg 55%
    04:00 +18°C° 0.3 mm 3 m/s 732 mmHg 61%
    05:00 +19°C° 0.1 mm 4 m/s 732 mmHg 55%
    06:00 +19°C° 0.1 mm 5 m/s 733 mmHg 50%
    07:00 +20°C° 0.1 mm 5 m/s 733 mmHg 44%
    08:00 +21°C° 0 mm 5 m/s 733 mmHg 40%
    09:00 +22°C° 0 mm 5 m/s 733 mmHg 36%
    10:00 +23°C° 0 mm 5 m/s 734 mmHg 31%
    11:00 +24°C° 0 mm 6 m/s 733 mmHg 27%
    12:00 +26°C° 0 mm 6 m/s 733 mmHg 23%
    13:00 +27°C° 0 mm 7 m/s 732 mmHg 19%
    14:00 +27°C° 0 mm 8 m/s 732 mmHg 18%
    15:00 +27°C° 0 mm 9 m/s 732 mmHg 17%
    16:00 +26°C° 0 mm 10 m/s 732 mmHg 17%
    17:00 +24°C° 0 mm 10 m/s 732 mmHg 19%
    18:00 +22°C° 0 mm 10 m/s 733 mmHg 22%
    19:00 +19°C° 0 mm 9 m/s 733 mmHg 25%
    20:00 +18°C° 0 mm 9 m/s 733 mmHg 27%
    21:00 +17°C° 0 mm 9 m/s 734 mmHg 30%
    22:00 +16°C° 0 mm 9 m/s 734 mmHg 32%
    23:00 +16°C° 0 mm 9 m/s 733 mmHg 34%

    21 Octobre, Lundi

    Heure Température Précipitation Vent Pression Humidité
    00:00 +14°C° 0 mm 10 m/s 733 mmHg 35%
    01:00 +14°C° 0 mm 10 m/s 733 mmHg 36%
    02:00 +13°C° 0 mm 10 m/s 733 mmHg 40%
    03:00 +12°C° 0 mm 9 m/s 734 mmHg 43%
    04:00 +11°C° 0 mm 9 m/s 735 mmHg 47%
    05:00 +11°C° 0 mm 9 m/s 735 mmHg 38%
    06:00 +12°C° 0 mm 9 m/s 736 mmHg 29%
    07:00 +12°C° 0 mm 10 m/s 737 mmHg 20%
    08:00 +13°C° 0 mm 10 m/s 737 mmHg 20%
    09:00 +14°C° 0 mm 10 m/s 737 mmHg 20%
    10:00 +16°C° 0 mm 10 m/s 737 mmHg 19%
    11:00 +17°C° 0 mm 10 m/s 737 mmHg 19%
    12:00 +18°C° 0 mm 9 m/s 737 mmHg 18%
    13:00 +18°C° 0 mm 9 m/s 736 mmHg 17%
    14:00 +18°C° 0 mm 8 m/s 736 mmHg 18%
    15:00 +20°C° 0 mm 7 m/s 735 mmHg 18%
    16:00 +20°C° 0 mm 6 m/s 734 mmHg 19%
    17:00 +17°C° 0 mm 5 m/s 735 mmHg 21%
    18:00 +17°C° 0 mm 3 m/s 735 mmHg 24%
    19:00 +16°C° 0 mm 2 m/s 735 mmHg 27%
    20:00 +15°C° 0 mm 2 m/s 736 mmHg 29%
    21:00 +15°C° 0 mm 2 m/s 736 mmHg 30%
    22:00 +14°C° 0 mm 2 m/s 737 mmHg 32%
    23:00 +14°C° 0 mm 2 m/s 737 mmHg 33%

    22 Octobre, Mardi

    Heure Température Précipitation Vent Pression Humidité
    00:00 +13°C° 0 mm 2 m/s 737 mmHg 34%
    01:00 +11°C° 0 mm 3 m/s 737 mmHg 35%
    02:00 +11°C° 0 mm 3 m/s 737 mmHg 37%
    03:00 +10°C° 0 mm 3 m/s 737 mmHg 39%
    04:00 +10°C° 0 mm 3 m/s 737 mmHg 41%
    05:00 +11°C° 0 mm 3 m/s 737 mmHg 37%
    06:00 +13°C° 0 mm 4 m/s 738 mmHg 33%
    07:00 +14°C° 0 mm 4 m/s 738 mmHg 29%
    08:00 +16°C° 0 mm 3 m/s 738 mmHg 27%
    09:00 +17°C° 0 mm 2 m/s 737 mmHg 25%
    10:00 +19°C° 0 mm 1 m/s 737 mmHg 23%
    11:00 +20°C° 0 mm 1 m/s 737 mmHg 22%
    12:00 +21°C° 0 mm 1 m/s 736 mmHg 20%
    13:00 +22°C° 0 mm 1 m/s 736 mmHg 19%
    14:00 +22°C° 0 mm 1 m/s 735 mmHg 18%
    15:00 +23°C° 0 mm 1 m/s 735 mmHg 18%
    16:00 +23°C° 0 mm 2 m/s 734 mmHg 17%
    17:00 +21°C° 0 mm 2 m/s 734 mmHg 19%
    18:00 +20°C° 0 mm 2 m/s 734 mmHg 20%
    19:00 +18°C° 0 mm 2 m/s 734 mmHg 22%
    20:00 +18°C° 0 mm 2 m/s 735 mmHg 24%
    21:00 +18°C° 0 mm 1 m/s 735 mmHg 26%
    22:00 +16°C° 0 mm 1 m/s 736 mmHg 28%
    23:00 +15°C° 0 mm 1 m/s 736 mmHg 29%

    23 Octobre, Mercredi

    Heure Température Précipitation Vent Pression Humidité
    00:00 +15°C° 0 mm 1 m/s 736 mmHg 29%
    01:00 +14°C° 0 mm 1 m/s 736 mmHg 30%
    02:00 +12°C° 0 mm 3 m/s 736 mmHg 33%
    03:00 +10°C° 0 mm 5 m/s 737 mmHg 35%
    04:00 +10°C° 0 mm 7 m/s 737 mmHg 37%
    05:00 +10°C° 0 mm 7 m/s 737 mmHg 36%
    06:00 +11°C° 0 mm 7 m/s 738 mmHg 35%
    07:00 +12°C° 0 mm 7 m/s 738 mmHg 34%
    08:00 +15°C° 0 mm 7 m/s 738 mmHg 30%
    09:00 +18°C° 0 mm 7 m/s 738 mmHg 25%
    10:00 +21°C° 0 mm 6 m/s 739 mmHg 21%
    11:00 +22°C° 0 mm 7 m/s 738 mmHg 20%
    12:00 +23°C° 0 mm 7 m/s 738 mmHg 18%
    13:00 +24°C° 0 mm 7 m/s 737 mmHg 17%
    14:00 +24°C° 0 mm 7 m/s 737 mmHg 17%
    15:00 +24°C° 0 mm 7 m/s 736 mmHg 17%
    16:00 +24°C° 0 mm 7 m/s 736 mmHg 17%
    17:00 +22°C° 0 mm 7 m/s 736 mmHg 19%
    18:00 +21°C° 0 mm 6 m/s 736 mmHg 21%
    19:00 +19°C° 0 mm 6 m/s 736 mmHg 23%
    20:00 +18°C° 0 mm 7 m/s 736 mmHg 25%
    21:00 +17°C° 0 mm 7 m/s 736 mmHg 27%
    22:00 +16°C° 0 mm 7 m/s 737 mmHg 28%
    23:00 +15°C° 0 mm 7 m/s 736 mmHg 31%
    Voir plus